Location: OLV Amersfoort
(52.1552°N, 5.3872°E)
Time: 21:03:18
(UTC+02:00)

ISS - Pass Details

Date: 26 March 2023
Orbit: 412 x 419 km, 51.6° (Epoch: 01 June)

Event Time Altitude Azimuth Distance (km) Brightness Sun altitude
Rises 22:51:34 0° 282° (WNW) 2,372 1.0 -24.5°
Reaches altitude 10° 22:53:52 10° 270° (W) 1,500 -0.4 -24.8°
Enters shadow 22:55:07 18° 255° (WSW) 1,094 -1.3 -24.9°
